COSMO-SKYMED 3

Last updated on Fri Dec 19 2025 00:02:33 GMT+0000 (Coordinated Universal Time)

1 33412U 08054A 25352.58459446 .00003743 00000+0 26469-3 0 9998 2 33412 97.8471 203.0746 0016713 152.6275 207.5835 15.05410310929751
UTC large
Height (km)
Speed (km/s)
/
Latitude / Longitude
Inclination (degrees)
Orbital Period (minutes)
Azimuth
Elevation
Range (km)
Doppler Factor

Next 0 passes for location: London (51.5072 / 0.1276)

Sorry there are no passes over London.